User: anonymous   Login
Location: Unspecified
(0.0000°N, 0.0000°E)
Time: 06:12:20
(UTC+00:00)
Language:

EO-88 - Orbit

View from above orbital plane
View from above orbital plane
View from above satellite
View from above satellite

Ground track
Ground track

The orbit data is extracted from the following two-line orbital elements,

1 42017U 17008BX  19020.90939862 +.00001008 +00000-0 +43174-4 0  9990
2 42017 097.4229 089.4304 0005686 348.7651 011.3459 15.25072460107245
Epoch (UTC): 20 January 2019 21:49:32
Eccentricity: 0.0005686
inclination: 97.4229°
perigee height: 486 km
apogee height: 494 km
right ascension of ascending node: 89.4304°
argument of perigee: 348.7651°
revolutions per day: 15.25072460
mean anomaly at epoch: 11.3459°
orbit number at epoch: 10724

The dashed part of the orbit path shows where the satellite is in the earth's shadow,  

DLR